WARM SPRINGS (USACE) (WRS)

Elevation: 440' · RUSSIAN R basin · Operator: US Army Corps of Engineers

Provisional data, subject to change.
Query executed Tuesday at 2:01:01   clock

Select a sensor type for a plot of data.
Note: Reservoir Flows are daily averages.

Earlier

Date RES ELE    STORAGE    RES CHG    TOC STO    ABV TOC    OUTFLOW    INFLOW    PPT INC    TEMP MN    TEMP MX    EVP PAN   
 FEET   AF   AF   AF   AF   CFS   CFS   INCHES   DEG F   DEG F   INCHES  
08/03/2014 415.26 162290 -300 245000 -82710 122 -16 0.00 13 29 0.19
08/04/2014 415.12 162010 -280 245000 -82990 121 -9 0.00 13 28 0.16
08/05/2014 414.99 161750 -260 245000 -83250 121 -6 0.00 15 21 0.05
08/06/2014 414.85 161470 -280 245000 -83530 122 -4 0.00 16 36 0.22
08/07/2014 414.71 161190 -280 245000 -83810 121 -4 0.00 13 34 0.21
08/08/2014 414.58 160930 -260 245000 -84070 121 7 0.00 10 39 0.24
08/09/2014 414.42 160610 -320 245000 -84390 121 -25 0.00 11 31 0.21
08/10/2014 414.28 160340 -270 245000 -84660 121 -6 0.00 12 31 0.20
08/11/2014 414.14 160060 -280 245000 -84940 121 -4 0.00 11 34 0.22
08/12/2014 414.00 159780 -280 245000 -85220 121 -9 0.00 13 27 0.14
08/13/2014 413.87 159520 -260 245000 -85480 121 6 0.00 11 32 0.20
08/14/2014 413.72 159230 -290 245000 -85770 119 -17 0.00 12 31 0.20
08/15/2014 413.58 158950 -280 245000 -86050 118 -6 0.00 13 35 0.23
08/16/2014 413.45 158690 -260 245000 -86310 118 5 0.00 13 36 0.23
08/17/2014 413.32 158440 -250 245000 -86560 118 3 0.00 12 33 0.22
08/18/2014 413.20 158200 -240 245000 -86800 118 13 0.00 13 29 0.20
08/19/2014 413.07 157950 -250 245000 -87050 118 0 0.00 14 29 0.17
08/20/2014 412.93 157670 -280 245000 -87330 118 -10 0.00 15 24 0.16
08/21/2014 412.80 157420 -250 245000 -87580 118 2 0.00 15 33 0.20
08/22/2014 412.67 157160 -260 245000 -87840 118 2 0.00 14 30 0.20
08/23/2014 412.54 156910 -250 245000 -88090 118 1 0.00 14 30 0.17
08/24/2014 412.41 156650 -260 245000 -88350 118 1 0.00 13 30 0.17
08/25/2014 412.27 156380 -270 245000 -88620 118 -13 0.00 13 27 0.12
08/26/2014 412.14 156130 -250 245000 -88870 118 1 0.00 14 32 0.17
08/27/2014 412.01 155870 -260 245000 -89130 118 1 0.00 10 34 0.17
08/28/2014 411.88 155620 -- 245000 -- 118 1 0.00 13 37 0.17
08/29/2014 411.76 155390 -230 245000 -89610 118 9 0.00 14 32 0.14
08/30/2014 411.63 155140 -250 245000 -89860 -- -- -- -- -- --
08/31/2014 411.50 154880 -260 245000 -90120 -- -- -- -- -- --
09/01/2014 -- -- -- 245000 -- -- -- -- -- -- --
09/02/2014 -- -- -- -- -- -- -- -- -- -- --

Later | Latest

Warning! This data is preliminary and subject to revision.

Download Data Now Download Data Now | Show WRS Map | Plot WRS Data | 1 Month WRS Data | Real-Time WRS Data | WRS Info